Radiation Dose at Monitoring Post of Fukushima Daini Nuclear Power Station
Date,Time,MP-1(microSv/h),MP-2(microSv/h),MP-3(microSv/h),MP-4(microSv/h),MP-5(microSv/h),MP-6(microSv/h),MP-7(microSv/h),Wind Direction,Wind Velocity(m/s),Rain
2020/09/11,00:00,0.182,0.165,0.275,0.260,0.247,0.142,0.086,south-southwest,5.3,No
2020/09/11,00:10,0.183,0.164,0.273,0.258,0.247,0.143,0.086,west-southwest,1.4,No
2020/09/11,00:20,0.183,0.164,0.272,0.257,0.252,0.144,0.086,west-southwest,1.5,No
2020/09/11,00:30,0.182,0.163,0.274,0.259,0.250,0.144,0.087,south-southwest,1.1,No
2020/09/11,00:40,0.181,0.164,0.273,0.258,0.247,0.143,0.087,southwest,1.0,No
2020/09/11,00:50,0.184,0.164,0.273,0.258,0.251,0.145,0.087,-,CALM,No
2020/09/11,01:00,0.183,0.165,0.274,0.261,0.252,0.144,0.087,west-southwest,0.8,No
2020/09/11,01:10,0.183,0.164,0.276,0.259,0.249,0.144,0.087,-,CALM,No
2020/09/11,01:20,0.184,0.165,0.272,0.259,0.249,0.145,0.088,northwest,0.9,No
2020/09/11,01:30,0.184,0.165,0.275,0.261,0.252,0.146,0.087,northwest,1.8,No
2020/09/11,01:40,0.183,0.164,0.275,0.262,0.251,0.145,0.088,north,3.0,No
2020/09/11,01:50,0.184,0.166,0.272,0.260,0.249,0.145,0.088,north,2.9,No
2020/09/11,02:00,0.185,0.166,0.277,0.262,0.252,0.146,0.087,north-northeast,2.6,No
2020/09/11,02:10,0.182,0.165,0.275,0.259,0.249,0.145,0.087,northeast,2.0,No
2020/09/11,02:20,0.183,0.166,0.273,0.258,0.249,0.145,0.087,north,2.1,No
2020/09/11,02:30,0.184,0.166,0.276,0.261,0.253,0.145,0.087,north-northwest,1.7,No
2020/09/11,02:40,0.181,0.164,0.275,0.258,0.250,0.145,0.087,northwest,1.7,No
2020/09/11,02:50,0.182,0.165,0.272,0.259,0.248,0.144,0.088,-,CALM,No
2020/09/11,03:00,0.184,0.164,0.275,0.261,0.252,0.145,0.088,north-northeast,1.3,No
2020/09/11,03:10,0.183,0.165,0.275,0.258,0.250,0.145,0.087,north-northwest,3.4,No
2020/09/11,03:20,0.181,0.166,0.272,0.260,0.250,0.144,0.088,north-northwest,2.7,No
2020/09/11,03:30,0.184,0.164,0.276,0.261,0.252,0.145,0.087,northwest,1.5,No
2020/09/11,03:40,0.183,0.164,0.274,0.258,0.250,0.144,0.087,north-northwest,3.6,No
2020/09/11,03:50,0.181,0.166,0.273,0.260,0.248,0.144,0.087,north-northwest,3.7,No
2020/09/11,04:00,0.184,0.165,0.275,0.260,0.252,0.145,0.087,north-northwest,3.6,No
2020/09/11,04:10,0.183,0.165,0.274,0.258,0.250,0.146,0.087,north-northwest,3.7,No
2020/09/11,04:20,0.183,0.166,0.273,0.260,0.248,0.145,0.088,north,2.7,No
2020/09/11,04:30,0.184,0.164,0.278,0.261,0.252,0.146,0.088,north-northwest,2.5,No
2020/09/11,04:40,0.184,0.165,0.275,0.258,0.252,0.145,0.087,north-northwest,3.5,No
2020/09/11,04:50,0.182,0.166,0.272,0.259,0.248,0.144,0.087,north-northwest,3.8,No
2020/09/11,05:00,0.182,0.165,0.276,0.262,0.251,0.145,0.088,north-northwest,3.2,No
2020/09/11,05:10,0.184,0.164,0.274,0.259,0.252,0.146,0.087,north-northwest,3.0,No
2020/09/11,05:20,0.183,0.166,0.272,0.258,0.249,0.144,0.088,north-northwest,3.3,No
2020/09/11,05:30,0.182,0.165,0.275,0.260,0.249,0.145,0.088,north-northwest,3.4,No
2020/09/11,05:40,0.184,0.163,0.274,0.257,0.252,0.145,0.087,north-northwest,4.1,No
2020/09/11,05:50,0.182,0.165,0.271,0.257,0.250,0.144,0.086,north-northwest,4.5,No
2020/09/11,06:00,0.181,0.165,0.273,0.260,0.246,0.144,0.087,north-northwest,4.3,No
2020/09/11,06:10,0.182,0.163,0.273,0.259,0.252,0.145,0.087,north-northwest,3.8,No
2020/09/11,06:20,0.183,0.164,0.273,0.258,0.251,0.144,0.086,north-northwest,3.9,No
2020/09/11,06:30,0.182,0.166,0.271,0.257,0.248,0.143,0.086,north-northwest,3.5,No
2020/09/11,06:40,0.179,0.163,0.274,0.260,0.248,0.144,0.087,north,3.2,No
2020/09/11,06:50,0.182,0.163,0.271,0.257,0.251,0.145,0.086,north-northwest,3.1,No
2020/09/11,07:00,0.182,0.165,0.270,0.256,0.247,0.143,0.085,north-northwest,3.0,No
2020/09/11,07:10,0.181,0.163,0.273,0.259,0.248,0.142,0.085,northwest,2.3,No
2020/09/11,07:20,0.180,0.163,0.274,0.260,0.248,0.142,0.086,north-northwest,2.6,No
2020/09/11,07:30,0.182,0.162,0.271,0.256,0.251,0.144,0.086,north,1.7,No
2020/09/11,07:40,0.183,0.164,0.270,0.255,0.249,0.143,0.086,northwest,2.5,No
2020/09/11,07:50,0.182,0.165,0.269,0.254,0.247,0.143,0.086,northwest,1.5,No
2020/09/11,08:00,0.179,0.165,0.272,0.258,0.246,0.143,0.086,north,1.4,No
2020/09/11,08:10,0.179,0.162,0.274,0.259,0.246,0.143,0.086,north,1.2,No
2020/09/11,08:20,0.182,0.163,0.273,0.258,0.246,0.144,0.086,north-northwest,1.8,No
2020/09/11,08:30,0.182,0.163,0.271,0.257,0.250,0.144,0.085,north-northwest,2.0,No
2020/09/11,08:40,0.181,0.163,0.270,0.257,0.251,0.143,0.085,north-northeast,1.8,No
2020/09/11,08:50,0.179,0.162,0.272,0.257,0.250,0.143,0.085,north-northeast,1.8,No
2020/09/11,09:00,0.180,0.163,0.271,0.257,0.248,0.143,0.085,northeast,2.1,No
2020/09/11,09:10,0.180,0.162,0.271,0.256,0.248,0.144,0.086,north-northeast,1.4,No
2020/09/11,09:20,0.180,0.165,0.271,0.256,0.248,0.143,0.085,northeast,2.5,No
2020/09/11,09:30,0.180,0.164,0.271,0.257,0.247,0.143,0.086,northeast,1.6,No
2020/09/11,09:40,0.181,0.164,0.272,0.257,0.248,0.143,0.085,northeast,2.1,No
2020/09/11,09:50,0.181,0.163,0.272,0.258,0.250,0.144,0.086,northeast,2.9,No
2020/09/11,10:00,0.181,0.163,0.273,0.258,0.249,0.143,0.086,northeast,3.2,No
2020/09/11,10:10,0.182,0.165,0.275,0.257,0.249,0.144,0.086,northeast,3.3,No
2020/09/11,10:20,0.181,0.163,0.274,0.259,0.248,0.144,0.086,east-northeast,3.3,No
2020/09/11,10:30,0.183,0.163,0.272,0.259,0.248,0.144,0.085,north-northeast,3.7,No
2020/09/11,10:40,0.182,0.164,0.271,0.258,0.247,0.144,0.086,northeast,3.1,No
2020/09/11,10:50,0.182,0.163,0.272,0.257,0.248,0.143,0.086,northeast,3.5,No
2020/09/11,11:00,0.182,0.164,0.273,0.258,0.247,0.143,0.086,northeast,3.5,No
2020/09/11,11:10,0.182,0.164,0.272,0.257,0.248,0.144,0.087,north-northeast,3.6,No
2020/09/11,11:20,0.181,0.164,0.272,0.258,0.248,0.143,0.085,north-northeast,4.7,No
2020/09/11,11:30,0.181,0.164,0.273,0.258,0.248,0.143,0.085,northeast,4.3,No
2020/09/11,11:40,0.181,0.164,0.273,0.258,0.248,0.144,0.086,northeast,4.1,No
2020/09/11,11:50,0.181,0.164,0.272,0.258,0.249,0.143,0.086,northeast,3.7,No
2020/09/11,12:00,0.181,0.163,0.272,0.258,0.248,0.144,0.086,northeast,4.2,No
2020/09/11,12:10,0.182,0.163,0.271,0.257,0.248,0.144,0.086,north-northeast,4.1,No
2020/09/11,12:20,0.181,0.163,0.271,0.258,0.247,0.144,0.085,north-northeast,4.6,No
2020/09/11,12:30,0.181,0.164,0.272,0.259,0.248,0.143,0.085,north-northeast,4.4,No
2020/09/11,12:40,0.180,0.163,0.271,0.257,0.248,0.144,0.086,north,4.8,No
2020/09/11,12:50,0.180,0.162,0.272,0.256,0.249,0.143,0.086,north,5.0,No
2020/09/11,13:00,0.179,0.163,0.270,0.257,0.247,0.144,0.086,north,4.4,No
2020/09/11,13:10,0.181,0.162,0.271,0.257,0.248,0.143,0.086,north-northeast,4.5,No
2020/09/11,13:20,0.181,0.162,0.272,0.256,0.247,0.144,0.085,north-northeast,3.9,No
2020/09/11,13:30,0.183,0.164,0.275,0.259,0.247,0.143,0.085,north,3.8,No
2020/09/11,13:40,0.182,0.164,0.275,0.263,0.247,0.143,0.086,north-northeast,2.9,No
2020/09/11,13:50,0.181,0.165,0.274,0.259,0.248,0.144,0.086,northeast,2.7,No
2020/09/11,14:00,0.180,0.163,0.271,0.258,0.251,0.145,0.086,north-northeast,3.9,No
2020/09/11,14:10,0.181,0.163,0.272,0.257,0.251,0.144,0.086,north-northeast,3.5,No
2020/09/11,14:20,0.184,0.165,0.276,0.258,0.250,0.143,0.086,north-northeast,3.3,Yes
2020/09/11,14:30,0.183,0.166,0.275,0.261,0.247,0.144,0.086,north-northeast,3.8,Yes
2020/09/11,14:40,0.181,0.163,0.273,0.260,0.248,0.144,0.086,northeast,3.0,Yes
2020/09/11,14:50,0.181,0.163,0.272,0.258,0.252,0.144,0.086,north-northeast,3.2,No
2020/09/11,15:00,0.182,0.164,0.275,0.257,0.250,0.144,0.086,north-northeast,2.4,No
2020/09/11,15:10,0.182,0.165,0.275,0.260,0.248,0.144,0.086,northeast,2.9,No
2020/09/11,15:20,0.181,0.164,0.274,0.261,0.246,0.144,0.086,north-northeast,3.4,No
2020/09/11,15:30,0.181,0.163,0.272,0.259,0.248,0.142,0.085,northeast,2.7,No
2020/09/11,15:40,0.182,0.163,0.272,0.257,0.252,0.144,0.084,northeast,2.7,No
2020/09/11,15:50,0.184,0.165,0.276,0.257,0.250,0.144,0.086,north-northeast,1.6,No
2020/09/11,16:00,0.181,0.164,0.273,0.260,0.249,0.144,0.086,northeast,2.5,No
2020/09/11,16:10,0.181,0.163,0.272,0.259,0.247,0.144,0.086,northeast,2.3,No
2020/09/11,16:20,0.181,0.164,0.272,0.258,0.250,0.143,0.086,north-northeast,2.4,No
2020/09/11,16:30,0.183,0.163,0.276,0.256,0.251,0.143,0.085,northeast,2.2,No
2020/09/11,16:40,0.182,0.164,0.274,0.259,0.248,0.144,0.087,northeast,2.1,No
2020/09/11,16:50,0.181,0.163,0.272,0.260,0.247,0.144,0.086,north-northeast,2.4,No
2020/09/11,17:00,0.181,0.164,0.274,0.259,0.249,0.143,0.085,north-northeast,1.7,No
2020/09/11,17:10,0.184,0.165,0.277,0.257,0.249,0.144,0.085,north-northeast,3.1,No
2020/09/11,17:20,0.182,0.164,0.274,0.260,0.249,0.144,0.086,north,2.1,No
2020/09/11,17:30,0.180,0.162,0.272,0.259,0.247,0.144,0.086,north,2.2,No
2020/09/11,17:40,0.182,0.165,0.275,0.258,0.250,0.142,0.086,north,2.2,No
2020/09/11,17:50,0.183,0.165,0.275,0.259,0.250,0.143,0.086,north,1.9,No
2020/09/11,18:00,0.181,0.163,0.273,0.262,0.247,0.144,0.085,north,2.3,No
2020/09/11,18:10,0.180,0.164,0.273,0.260,0.246,0.144,0.086,north,2.1,No
2020/09/11,18:20,0.182,0.165,0.276,0.257,0.250,0.142,0.086,north-northeast,1.8,No
2020/09/11,18:30,0.182,0.163,0.275,0.258,0.250,0.142,0.085,northeast,2.9,No
2020/09/11,18:40,0.181,0.163,0.271,0.260,0.247,0.143,0.085,north-northeast,2.7,No
2020/09/11,18:50,0.180,0.164,0.274,0.258,0.247,0.144,0.086,north-northeast,2.8,No
2020/09/11,19:00,0.181,0.165,0.274,0.257,0.251,0.143,0.085,north,3.2,No
2020/09/11,19:10,0.183,0.162,0.272,0.259,0.248,0.143,0.085,north,2.5,No
2020/09/11,19:20,0.181,0.163,0.271,0.260,0.247,0.144,0.086,north,2.1,Yes
2020/09/11,19:30,0.181,0.165,0.275,0.258,0.247,0.145,0.086,north-northwest,2.7,Yes
2020/09/11,19:40,0.184,0.165,0.274,0.258,0.251,0.143,0.086,north-northwest,3.3,Yes
2020/09/11,19:50,0.182,0.163,0.273,0.260,0.248,0.143,0.085,north-northwest,3.6,Yes
2020/09/11,20:00,0.181,0.164,0.274,0.259,0.246,0.145,0.087,north-northwest,3.3,Yes
2020/09/11,20:10,0.182,0.165,0.274,0.257,0.251,0.144,0.087,north-northwest,4.6,Yes
2020/09/11,20:20,0.183,0.163,0.271,0.260,0.250,0.143,0.085,north-northwest,4.3,Yes
2020/09/11,20:30,0.181,0.163,0.271,0.258,0.247,0.144,0.087,northwest,4.5,Yes
2020/09/11,20:40,0.180,0.163,0.265,0.251,0.244,0.143,0.087,northwest,4.0,Yes
2020/09/11,20:50,0.182,0.162,0.263,0.252,0.248,0.142,0.086,north-northwest,4.0,Yes
2020/09/11,21:00,0.180,0.162,0.265,0.253,0.245,0.142,0.086,north,4.4,Yes
2020/09/11,21:10,0.179,0.162,0.265,0.249,0.243,0.144,0.087,north,6.9,Yes
2020/09/11,21:20,0.180,0.162,0.262,0.249,0.248,0.142,0.086,northwest,4.1,Yes
2020/09/11,21:30,0.179,0.160,0.264,0.253,0.244,0.143,0.086,northwest,3.5,No
2020/09/11,21:40,0.178,0.162,0.265,0.249,0.244,0.143,0.086,north-northwest,4.4,No
2020/09/11,21:50,0.180,0.160,0.262,0.249,0.247,0.143,0.086,northwest,4.7,Yes
2020/09/11,22:00,0.180,0.160,0.265,0.253,0.247,0.142,0.085,northwest,4.9,Yes
2020/09/11,22:10,0.178,0.161,0.264,0.250,0.244,0.143,0.086,northwest,5.3,Yes
2020/09/11,22:20,0.180,0.160,0.262,0.248,0.246,0.143,0.086,northwest,5.9,No
2020/09/11,22:30,0.179,0.159,0.265,0.252,0.245,0.141,0.086,northwest,6.0,No
2020/09/11,22:40,0.177,0.161,0.264,0.249,0.244,0.141,0.085,north-northwest,6.2,No
2020/09/11,22:50,0.179,0.159,0.261,0.249,0.244,0.141,0.085,north-northwest,6.1,No
2020/09/11,23:00,0.180,0.159,0.262,0.252,0.247,0.141,0.085,north-northwest,5.6,No
2020/09/11,23:10,0.178,0.160,0.263,0.250,0.246,0.140,0.085,north-northwest,4.0,No
2020/09/11,23:20,0.177,0.159,0.259,0.247,0.242,0.140,0.085,northwest,4.5,No
2020/09/11,23:30,0.179,0.157,0.262,0.250,0.245,0.141,0.085,northwest,4.4,No
2020/09/11,23:40,0.178,0.159,0.263,0.249,0.246,0.141,0.083,northwest,3.8,No
2020/09/11,23:50,0.176,0.159,0.261,0.247,0.243,0.140,0.085,northwest,4.2,No
